RH
100 99 98 86 46 58 66 65 87 79 70 25 57 78 69 71 76 94 76 89 97 88 80 64 76 99 94 97 97 89 93 96 98 97 73 62 55 61 55 43 45 52 66 60 50 52 54 34 32 33 29 26 24 24
90 90 87 53 88 93 96 90 83 89 80 35 64 70 96 91 84 87 78 73 79 99 86 62 39 36 60 87 96 95 95 95 97 97 76 65 55 59 64 76 45 52 42 46 53 54 40 32 27 31 31 31 29 33
62 63 61 73 94 92 85 87 86 84 76 52 78 80 91 78 44 66 72 79 81 83 70 45 52 80 91 95 97 96 96 96 97 98 80 62 55 54 68 64 52 51 40 42 42 45 42 37 34 36 38 40 43 47
55 72 78 83 85 81 75 83 89 83 53 36 42 34 28 26 28 50 80 72 78 83 84 26 78 88 99 96 96 96 94 97 97 98 92 68 56 56 56 54 55 52 53 50 48 48 48 44 43 44 48 50 49 49
21 49 70 78 82 85 88 89 93 74 41 42 48 36 38 42 57 75 68 49 41 52 56 74 85 70 89 95 96 96 95 96 97 97 97 96 74 66 60 66 66 58 62 64 53 52 50 56 56 56 57 62 70 71
30 20 39 78 86 57 71 92 92 44 52 60 33 39 72 77 76 81 52 23 69 98 98 96 85 81 94 96 96 96 96 96 96 96 96 97 97 96 93 90 91 86 81 73 62 74 72 65 73 90 91 93 86 83
64 36 22 35 50 75 87 56 31 32 42 37 51 63 51 46 48 50 40 34 45 98 98 94 99 100 96 96 96 96 95 96 96 96 96 97 96 96 96 96 97 96 96 97 97 97 97 97 96 96 96 96 94 87
72 69 54 64 74 70 38 31 39 42 67 61 55 53 44 40 34 31 43 82 97 98 98 96 97 94 95 96 96 96 96 96 96 96 97 96 96 96 95 97 98 98 97 96 96 92 96 96 95 95 96 96 96 96
62 72 78 68 42 39 46 48 69 89 74 52 49 45 37 39 68 96 96 97 98 98 97 97 97 95 95 96 96 97 96 96 96 96 95 96 96 95 98 97 96 96 97 91 96 96 96 97 96 96 96 95 95 87
39 47 50 59 70 72 68 65 59 49 46 42 35 57 75 90 97 97 96 98 98 98 97 97 96 96 96 96 96 95 96 95 94 96 95 96 97 97 97 97 96 96 96 96 95 96 96 97 96 95 93 76 47 27
44 51 58 51 45 44 48 49 45 44 49 54 70 96 98 97 97 97 97 97 97 99 98 97 96 96 96 96 95 95 96 96 94 95 94 96 98 97 96 96 97 98 98 98 97 96 96 94 81 58 39 24 20 20
42 50 45 38 35 36 46 50 48 62 76 81 98 96 97 96 97 97 97 97 96 97 98 97 97 96 96 95 96 95 95 94 96 94 94 96 98 97 96 96 97 96 95 90 88 74 49 38 30 27 24 23 20 18
32 38 40 39 36 33 43 44 59 87 68 84 83 88 95 87 88 92 98 98 98 97 97 97 97 96 96 95 80 82 94 95 95 94 97 98 98 96 96 96 90 68 51 41 38 35 32 29 26 23 20 19 17 17
31 31 32 36 34 34 46 46 53 70 66 74 72 87 84 94 97 98 98 98 98 98 98 97 95 93 78 59 60 61 46 73 97 96 98 98 96 89 69 57 47 46 43 39 34 30 26 25 27 25 22 19 18 17
26 33 35 35 32 39 51 54 60 60 51 80 83 95 98 99 100 98 99 97 98 97 96 95 75 61 44 38 30 28 48 96 97 97 97 94 77 63 54 51 46 41 36 33 30 32 30 22 19 22 24 22 19 16
26 25 29 35 33 40 44 60 54 47 52 93 98 97 98 96 99 98 97 96 96 91 68 31 29 41 26 34 39 67 84 99 99 97 95 82 69 64 57 47 39 36 34 36 37 35 30 24 28 24 19 16 14 13
43 28 26 35 36 42 43 56 45 68 86 96 100 100 99 98 96 55 51 94 91 48 32 23 29 48 59 70 92 97 99 98 96 94 85 74 53 46 42 40 37 33 31 30 28 24 27 28 24 19 16 15 15 17
42 34 26 34 35 40 40 45 58 88 100 100 97 100 98 100 98 66 41 63 60 31 25 44 78 96 100 100 100 100 100 95 91 84 61 52 49 44 41 37 33 31 28 30 30 28 25 22 18 18 18 19 25 38
44 34 31 35 32 36 41 44 51 90 97 98 100 99 95 96 98 94 59 35 37 32 25 72 92 100 100 95 87 83 79 69 60 57 54 48 42 37 34 33 35 33 30 27 25 23 22 22 21 23 28 39 58 70
45 37 36 38 33 37 46 56 58 76 82 99 98 85 77 82 71 71 70 52 37 26 48 92 100 100 89 82 77 74 70 65 59 52 45 41 40 43 43 38 34 31 29 27 26 25 25 27 31 38 61 77 79 77
36 38 37 36 40 32 59 75 77 78 86 99 100 96 100 98 81 69 59 50 29 57 99 100 100 93 85 77 70 63 58 52 49 49 49 50 48 43 39 38 35 33 30 28 28 32 33 34 54 79 84 82 82 84
36 38 40 44 50 49 52 52 75 85 92 100 98 100 100 97 87 78 72 48 81 100 100 100 100 90 81 72 62 60 54 50 51 56 58 56 50 44 41 38 35 34 36 39 40 33 39 74 88 90 90 91 93 96
44 41 42 51 59 63 64 64 70 81 93 88 93 94 98 97 97 92 93 98 100 100 100 100 100 100 100 100 98 93 83 74 65 56 52 50 48 47 48 47 46 48 47 37 34 54 89 95 96 94 94 96 98 98
45 42 51 60 69 72 78 74 76 84 95 89 82 87 96 98 98 95 95 96 100 100 100 100 99 97 91 78 72 70 70 71 68 65 61 58 56 56 57 57 52 40 33 38 67 89 96 96 94 96 96 97 98 98
41 52 63 68 66 78 88 91 87 90 96 94 92 94 94 97 95 98 98 99 97 98 99 99 97 86 81 84 85 82 81 78 75 71 71 69 67 63 62 60 41 35 49 81 93 94 96 96 97 97 97 98 98 98
46 57 67 68 65 72 79 85 92 93 91 90 96 94 90 87 92 98 100 99 97 98 98 95 91 92 90 88 87 88 88 85 80 77 75 72 69 71 67 44 44 66 93 97 97 97 97 97 97 97 97 98 98 98
53 60 72 75 73 68 76 85 90 90 85 92 98 85 81 86 92 99 99 100 100 100 100 100 100 96 93 95 96 96 92 89 85 78 75 71 65 67 63 50 62 96 98 99 97 97 97 97 97 97 98 98 99 99
74 68 69 78 86 79 76 75 82 86 86 82 76 79 80 80 92 94 92 87 77 75 82 94 96 91 91 93 93 91 87 88 82 75 74 68 61 68 73 70 85 96 94 96 98 98 97 97 98 98 98 99 99 97
89 88 75 78 86 82 74 75 80 79 77 70 67 71 78 81 88 86 84 83 76 64 59 68 89 95 98 97 96 97 99 96 84 77 73 68 70 69 73 83 91 99 100 99 98 98 98 98 97 97 98 99 98 96
95 99 96 82 83 93 86 82 77 70 64 73 82 90 86 84 80 78 81 78 68 64 71 94 97 98 98 100 100 97 88 78 71 65 60 58 58 58 57 62 81 97 99 99 98 98 98 97 97 98 98 99 99 98
84 100 100 95 86 95 93 88 80 72 73 79 92 96 93 89 83 91 87 85 82 96 100 100 100 100 99 99 98 92 85 76 69 60 54 51 48 48 50 53 52 65 85 97 98 98 98 98 98 98 98 98 99 99
80 100 100 100 93 88 92 97 90 88 88 96 96 93 90 88 92 95 93 98 100 100 100 100 100 99 100 98 97 94 86 80 71 61 52 47 44 43 44 43 44 48 49 54 94 98 98 98 97 98 98 98 99 99
92 100 100 100 100 93 92 96 97 96 92 92 93 90 88 93 97 95 80 89 98 99 99 100 100 100 98 95 92 86 81 72 64 56 48 40 36 33 34 38 42 43 45 46 42 74 98 98 98 98 98 98 99 100
Wind_Speed
31 30 31 31 29 26 28 26 28 28 27 28 27 27 26 24 21 24 25 25 31 39 40 36 24 20 30 28 40 36 34 12 40 26 30 23 14 26 20 27 31 30 19 21 22 11 8 16 18 20 14 12 14 19
30 31 32 27 26 27 28 28 28 27 27 28 26 24 23 21 22 22 26 27 31 37 44 40 40 37 39 31 34 35 27 17 19 20 19 24 14 23 25 17 32 20 23 20 24 21 10 17 16 19 12 12 17 17
30 29 28 27 29 29 29 30 28 28 27 26 25 24 23 21 22 24 28 27 30 37 42 28 14 19 20 23 23 26 19 11 12 28 23 25 17 24 17 19 32 23 31 24 23 21 25 18 21 22 20 22 20 16
31 30 30 30 31 30 29 28 28 27 26 26 25 24 24 24 25 25 26 25 28 33 43 28 16 10 15 17 17 17 14 10 6 26 23 22 26 19 21 17 27 27 30 28 28 25 26 24 26 25 24 22 19 17
30 30 29 27 26 26 26 26 27 27 28 28 24 24 24 22 23 25 26 22 26 29 36 34 28 25 22 16 11 13 13 9 6 13 29 25 22 16 18 19 22 22 26 22 24 24 28 31 29 27 24 19 14 15
29 28 28 27 26 26 26 29 28 27 25 23 23 23 22 23 22 25 26 23 12 12 19 26 22 21 19 9 7 8 9 10 8 7 7 16 27 24 19 12 16 19 20 19 17 25 21 28 25 22 20 16 18 21
29 27 26 27 27 28 29 26 26 25 24 23 23 22 21 20 20 23 27 29 21 19 21 15 9 10 7 5 6 6 5 8 11 9 8 18 19 18 14 14 19 17 20 20 18 23 25 22 21 21 21 23 27 28
28 25 26 27 28 27 25 27 25 25 24 23 23 22 22 22 23 23 17 16 13 16 13 7 10 10 5 5 8 9 9 10 10 10 13 17 15 11 8 14 16 15 15 14 15 14 14 24 26 31 31 28 27 23
29 25 25 25 26 26 26 26 26 25 25 26 25 24 23 19 13 11 12 12 13 11 5 6 7 6 4 6 9 12 9 12 11 16 17 13 10 10 18 16 16 15 12 15 17 16 20 26 28 28 26 24 19 16
29 25 24 25 25 26 26 26 26 27 27 26 23 17 14 13 10 7 8 7 5 7 10 11 9 6 6 10 8 8 10 10 10 13 13 24 28 21 21 23 20 17 17 17 22 28 30 31 29 25 20 17 14 11
29 26 26 26 26 29 28 27 28 30 26 23 20 17 10 7 3 1 2 2 2 2 5 6 5 5 8 6 9 5 6 7 6 9 9 9 21 26 30 33 31 32 31 31 30 30 27 24 22 18 15 12 9 7
28 27 27 27 29 29 28 28 30 30 27 18 14 8 7 8 4 3 4 3 2 2 2 2 6 9 10 7 7 8 9 6 8 14 9 8 21 27 29 28 30 27 27 27 25 25 21 17 14 10 6 4 3 3
28 28 28 29 29 29 29 27 26 29 19 12 11 10 7 9 10 9 10 7 5 2 3 6 10 10 9 9 9 8 6 9 8 8 7 24 30 31 30 28 29 27 23 22 20 15 12 9 7 4 1 2 5 8
27 27 28 30 28 25 24 26 27 27 14 6 8 14 9 7 8 13 11 8 6 7 7 10 9 13 13 9 8 7 8 7 6 7 23 32 32 30 29 26 23 21 17 14 12 11 8 6 4 2 4 7 10 13
27 25 23 27 28 22 21 24 24 15 14 8 8 7 17 14 7 5 7 7 8 14 14 17 14 12 11 8 6 7 5 7 7 22 35 32 29 26 23 20 16 15 13 11 8 7 5 1 6 8 8 10 12 15
26 25 22 23 27 22 19 18 13 9 23 22 15 10 13 18 10 4 8 7 11 11 8 8 8 5 7 6 6 7 5 7 33 37 34 30 26 22 19 16 13 10 7 5 3 2 6 10 11 12 14 17 20 23
25 24 24 21 21 18 18 9 16 20 14 14 16 17 13 16 19 16 11 5 7 4 3 4 5 6 6 7 7 8 21 40 39 34 30 25 23 18 14 11 7 4 1 2 5 8 11 13 15 18 21 24 28 30
24 20 20 19 17 10 11 11 18 20 24 22 19 16 18 15 14 17 14 8 2 2 7 10 10 13 11 19 33 40 39 36 32 28 24 20 15 11 8 4 2 2 5 8 10 12 15 18 21 25 28 30 31 31
24 19 18 16 15 10 7 13 15 14 18 20 18 16 21 20 16 16 17 8 7 10 24 20 20 34 42 42 37 35 33 28 24 20 16 12 8 6 2 1 4 7 10 12 14 17 20 23 26 28 28 30 30 27
18 16 14 12 12 10 5 6 11 10 14 17 17 19 23 25 19 12 8 13 21 37 51 48 42 38 36 33 30 27 24 20 16 12 8 5 2 0 2 5 8 10 13 15 18 21 23 25 26 28 28 23 20 18
13 11 12 11 8 7 9 9 7 5 9 14 13 14 20 16 18 25 36 42 38 50 44 36 32 31 28 26 22 20 17 14 10 7 3 1 2 4 7 9 12 14 17 20 22 24 24 25 26 22 18 16 14 13
12 13 13 9 7 12 9 9 7 8 10 9 12 14 15 19 23 26 29 36 42 34 31 26 23 21 19 17 15 13 10 7 4 2 2 3 5 8 10 13 15 18 20 21 22 22 23 23 19 16 15 14 11 10
10 13 12 13 7 6 8 8 8 6 3 6 6 10 11 13 14 13 22 28 27 25 22 18 16 15 14 12 10 8 6 5 3 2 4 6 8 10 12 14 17 19 20 21 21 22 20 16 14 14 12 10 8 7
7 10 13 10 9 6 7 6 6 7 6 7 9 9 10 12 14 16 18 18 17 16 14 13 13 12 11 10 9 7 5 4 3 4 6 9 11 13 14 16 17 18 19 20 21 18 14 11 11 11 9 7 5 3
6 7 6 10 8 6 7 9 8 8 7 5 8 8 7 7 12 14 13 13 12 11 11 10 11 10 10 8 6 3 4 5 7 8 10 12 14 16 17 19 19 19 19 20 19 16 12 9 8 8 6 3 1 1
5 6 6 7 6 6 4 4 4 3 4 8 10 10 9 6 5 6 9 10 10 9 10 10 9 8 6 5 6 7 7 8 9 10 11 12 12 13 14 14 15 17 19 16 14 12 9 7 6 5 3 1 1 1
6 4 5 5 5 3 4 4 4 4 6 5 7 6 4 3 3 7 8 8 8 8 7 7 6 5 4 5 6 6 7 8 9 10 11 11 12 13 13 14 16 17 13 12 10 8 6 5 4 3 1 1 1 1
5 6 4 3 3 3 2 1 2 3 3 1 1 2 2 5 11 11 10 7 5 4 3 4 3 1 2 4 4 5 7 10 12 13 15 16 16 17 17 19 21 19 16 15 10 6 4 3 3 2 2 2 2 2
6 5 5 2 2 1 0 2 2 1 2 2 2 4 10 16 13 9 7 5 4 2 2 3 4 1 3 3 5 7 8 10 12 13 14 15 16 16 17 19 20 20 14 13 9 5 3 3 3 2 2 3 3 3
8 5 3 2 1 2 2 1 1 1 1 1 9 18 16 12 8 5 3 3 4 1 2 3 1 1 3 4 5 5 7 9 10 12 13 13 14 15 16 16 17 19 14 10 7 5 3 2 3 3 3 3 4 4
9 5 4 3 1 3 3 2 1 2 8 17 19 13 8 5 3 2 5 4 2 4 2 1 2 1 2 5 7 8 9 12 15 16 15 15 15 16 16 15 15 16 17 14 9 6 3 2 3 3 3 5 4 4
8 5 6 6 4 3 6 5 4 7 13 16 13 6 3 1 2 3 4 1 1 2 2 1 0 3 5 6 7 9 11 13 15 16 16 16 15 15 15 15 15 15 15 15 13 7 5 4 4 3 3 4 6 6
5 5 7 8 7 4 6 9 8 8 8 10 11 9 7 6 6 6 5 3 2 1 1 3 4 4 5 6 8 10 12 14 15 15 16 16 17 17 16 16 16 15 14 13 12 12 7 5 4 4 4 4 5 7
Wind_Direction
316 317 312 309 310 307 304 305 306 307 308 309 302 302 300 294 286 280 284 286 290 289 289 297 297 289 297 288 278 292 321 197 188 192 192 196 191 187 195 191 186 186 171 192 201 198 227 198 193 184 207 204 203 193
320 315 314 311 310 308 306 309 308 308 307 310 304 302 297 292 287 285 288 290 290 287 290 293 289 279 285 284 285 290 275 303 201 185 187 189 166 176 185 175 191 183 195 184 189 200 199 194 195 195 189 182 173 180
329 324 317 309 309 309 309 310 310 308 308 309 304 304 302 295 289 290 292 292 293 295 298 295 292 278 276 275 275 272 285 292 212 193 193 191 187 181 172 181 189 192 192 187 186 195 203 190 199 197 178 174 174 177
330 325 322 317 314 312 311 311 311 310 306 307 305 303 302 297 292 293 289 292 293 296 293 309 317 288 301 281 266 264 281 302 240 202 190 186 185 188 186 188 190 190 198 203 206 210 202 201 196 196 192 194 203 207
332 333 331 328 325 322 317 315 312 312 311 306 302 303 303 300 295 289 291 294 293 281 283 300 301 296 297 289 264 261 268 264 238 182 197 190 181 163 166 168 181 182 184 185 198 200 194 186 183 186 202 213 215 211
330 331 331 328 327 325 323 319 319 318 315 311 307 304 300 298 297 297 298 303 292 298 310 292 305 301 302 282 262 245 255 239 222 231 172 159 185 189 180 171 172 174 181 194 196 176 172 177 177 180 199 204 193 185
328 326 328 329 330 327 325 326 325 322 316 310 305 303 299 294 289 286 290 295 291 292 299 306 302 311 294 228 240 234 233 217 211 207 112 151 147 148 138 140 161 173 182 188 185 193 195 188 192 185 188 186 183 184
333 328 329 331 331 331 330 328 327 325 320 313 306 301 296 294 289 284 281 280 284 293 280 261 287 303 281 215 198 188 173 175 161 157 144 148 142 115 88 134 150 163 170 172 172 174 199 191 178 177 183 186 186 181
346 340 339 338 338 337 336 333 330 327 321 319 314 310 304 295 284 274 267 274 271 276 260 259 283 297 248 213 191 153 139 116 124 110 116 137 97 72 112 128 143 152 168 165 157 156 166 166 166 166 167 156 148 139
356 355 352 350 347 344 340 337 333 328 325 323 318 314 306 301 286 279 282 267 253 243 247 271 275 259 204 165 148 118 102 90 88 86 74 76 86 100 117 110 109 124 140 148 152 151 156 156 151 138 126 124 133 146
358 356 355 351 350 348 342 337 335 331 331 333 334 329 323 320 338 251 252 234 246 259 247 271 228 200 189 163 132 104 94 88 81 63 82 82 88 112 115 112 105 106 111 121 129 128 124 118 109 114 126 139 154 174
354 353 351 353 354 346 339 335 340 340 338 341 353 358 21 20 19 33 19 16 22 307 322 218 176 173 149 114 87 81 71 71 82 88 79 87 120 119 114 113 112 109 105 103 100 101 109 116 122 128 138 155 187 231
350 351 349 349 349 345 341 346 346 350 348 358 14 17 19 27 27 24 5 1 352 359 116 142 142 134 98 74 60 58 65 75 68 67 72 129 124 113 109 110 112 113 116 114 117 121 122 120 118 115 106 308 301 299
346 348 349 348 348 342 346 353 354 352 354 35 42 39 42 21 26 32 22 23 51 102 124 134 105 92 84 70 72 67 78 72 70 72 123 131 119 124 125 124 125 127 129 128 126 123 117 105 82 18 320 303 297 295
343 346 345 351 353 348 347 355 352 4 23 50 48 46 43 44 37 19 36 56 104 113 94 95 78 85 78 80 75 94 68 68 83 129 134 130 131 134 136 135 137 134 132 130 128 126 123 14 324 317 311 307 305 305
339 342 341 346 355 354 357 356 357 23 49 48 54 47 34 41 60 68 30 58 106 92 103 93 83 82 53 61 66 69 80 82 129 132 131 135 136 137 137 138 138 136 134 135 152 232 297 313 319 319 320 318 315 313
340 345 348 345 354 354 360 1 36 51 42 43 41 34 34 38 30 33 37 53 101 103 115 72 63 64 65 54 59 67 113 130 134 134 133 132 134 136 138 137 134 130 138 286 296 303 312 319 319 320 318 315 311 309
343 346 349 351 355 356 4 27 55 46 40 35 36 28 28 37 25 26 46 68 67 93 132 90 84 87 85 89 106 118 125 130 134 134 132 131 131 130 130 134 148 320 325 323 320 320 320 317 314 313 312 310 306 301
342 344 353 357 1 360 11 30 50 50 40 37 37 36 35 34 29 25 25 52 130 133 116 94 93 96 108 112 114 119 122 126 128 127 126 124 126 128 130 328 324 324 323 321 319 316 312 309 306 305 303 301 300 298
345 348 355 0 9 11 32 28 41 49 42 40 39 38 37 29 30 38 46 109 122 121 105 98 102 108 112 116 119 121 124 125 125 125 127 129 123 32 321 318 318 317 316 314 311 309 309 308 306 305 305 304 301 300
358 7 9 9 6 29 50 40 41 39 52 50 49 56 68 67 83 102 111 111 113 101 98 102 107 110 113 115 118 120 123 125 123 119 103 66 330 319 313 309 310 311 311 311 311 311 310 308 309 309 309 308 306 308
19 14 8 15 37 44 37 30 44 70 79 71 68 76 95 99 96 94 103 105 97 96 98 103 107 108 111 114 117 118 121 119 114 90 358 325 313 305 305 309 310 311 310 310 312 312 312 313 314 315 315 314 309 310
11 13 20 27 31 31 24 31 37 51 81 90 100 91 98 99 95 90 85 91 96 98 98 100 103 104 105 105 105 111 118 117 92 29 348 329 323 318 315 314 312 312 313 314 315 316 316 315 319 320 317 311 306 304
352 8 27 20 28 31 28 42 49 62 77 104 108 104 104 108 112 105 99 96 94 95 99 104 107 106 107 103 96 90 77 55 16 339 329 325 324 323 323 320 318 317 316 316 319 321 320 316 319 323 323 319 312 309
14 19 19 17 22 35 54 59 65 84 85 95 109 109 108 120 113 107 106 105 104 104 106 109 108 102 95 88 77 56 20 6 355 344 339 336 333 330 328 326 324 321 320 322 322 323 322 313 316 325 329 334 8 98
13 25 21 17 26 38 60 51 58 75 79 96 102 107 115 97 79 105 116 116 117 118 119 119 115 109 96 67 38 23 10 0 355 347 341 335 332 329 327 325 324 323 321 320 319 317 312 304 307 317 331 12 83 139
15 7 9 21 30 40 52 57 66 89 117 117 110 109 81 75 82 128 129 129 130 131 132 130 125 109 67 27 11 5 1 355 351 349 347 349 345 341 343 343 341 338 332 333 327 316 303 290 286 295 289 228 201 196
359 6 355 355 2 6 12 60 124 142 135 118 133 128 124 132 134 123 113 109 113 136 162 182 183 176 335 345 354 356 351 352 352 352 354 355 353 352 351 349 347 352 350 348 340 321 298 279 269 270 250 226 216 211
346 340 350 330 335 305 78 73 71 172 204 284 261 190 152 142 132 120 105 84 70 68 166 176 173 185 330 348 357 351 347 350 350 349 346 345 346 347 350 349 347 352 346 339 338 325 300 274 264 266 257 236 222 219
333 314 282 336 250 236 210 184 50 346 346 123 135 140 138 130 121 109 66 3 350 4 148 147 132 45 30 10 357 352 350 350 353 354 352 349 349 351 353 352 349 352 0 355 347 340 317 268 257 278 266 244 229 222
315 289 230 215 197 179 182 171 74 90 130 138 141 136 131 109 96 44 0 356 116 138 153 178 169 160 350 352 357 354 352 353 354 353 351 348 349 348 346 348 354 356 0 6 1 348 333 286 281 289 268 244 238 229
296 248 211 206 198 188 193 182 150 137 152 162 171 173 191 271 321 337 351 36 110 58 41 72 238 302 315 328 339 343 345 344 343 342 344 345 343 344 345 346 350 354 356 356 360 353 332 301 277 287 294 259 235 231
259 218 203 203 206 210 207 202 198 190 189 196 211 231 249 270 291 304 303 261 240 254 335 353 349 341 334 328 331 334 335 335 335 336 338 340 343 345 346 345 345 345 343 348 351 352 340 312 290 274 281 276 246 233